Weather History for Medford, OR

Change the Weather History Date:

Tuesday, February 26, 2013

  Actual Average Record
Temperature  
Mean Temperature 41 °F 46 °F  
Max Temperature 54 °F 57 °F 79 °F (1992)
Min Temperature 27 °F 35 °F 10 °F (1962)
Degree Days  
Heating Degree Days 24 19  
Month to date heating degree days 618 544  
Since 1 July heating degree days 3037 3076  
Cooling Degree Days 0 0  
Month to date cooling degree days 0 0  
Year to date cooling degree days 0 0  
Moisture  
Dew Point 28 °F    
Average Humidity 65    
Maximum Humidity 92    
Minimum Humidity 38    
Precipitation  
Precipitation 0.00 in 0.07 in 0.87 in (1957)
Month to date precipitation 0.42 1.87  
Year to date precipitation 1.38 4.30  
Snow  
Snow 0.00 in 0.10 in - ()
Month to date snowfall T 0.6  
Since 1 July snowfall 1.7 3.6  
Snow Depth 0.00 in    
Sea Level Pressure  
Sea Level Pressure 30.34 in    
Wind  
Wind Speed 2 mph (NW)    
Max Wind Speed 8 mph    
Max Gust Speed 10 mph    
Visibility 10 miles    
Events      
T = Trace of Precipitation, MM = Missing Value Source: NWS Daily Summary

Daily Weather History Graph

Daily Weather History Graph

Search for Another Location

Airport:

Trip Planner

Search our weather history database for the weather conditions in past years. The results will help you decide how hot, cold, wet, or windy it might be!

Date:

Astronomy

Feb. 26, 2013 Rise Set
Actual Time 6:51 AM PST 5:58 PM PST
Civil Twilight 6:22 AM PST 6:26 PM PST
Nautical Twilight 5:50 AM PST 6:59 PM PST
Astronomical Twilight 5:17 AM PST 7:31 PM PST
Moon 7:23 PM PST (2/26) 6:54 AM PST (2/26)
Length of Visible Light 12h 03m
Length of Day
11h 07m
Full, 99% of the Moon is Illuminated
Feb 26
Full
Mar 4
Last Quarter
Mar 11
New
Mar 19
First Quarter
Mar 27
Full

Hourly Weather History & Observations

Time (PST) Temp. Windchill Dew Point Humidity Pressure Visibility Wind Dir Wind Speed Gust Speed Precip Events Conditions
12:53 AM 34.0 °F - 28.0 °F 79% 30.41 in 10.0 mi Calm Calm - N/A   Clear
1:53 AM 33.1 °F - 28.0 °F 82% 30.42 in 10.0 mi Calm Calm - N/A   Clear
2:53 AM 28.9 °F - 26.1 °F 89% 30.41 in 10.0 mi Calm Calm - N/A   Clear
3:53 AM 28.0 °F 24.2 °F 25.0 °F 88% 30.40 in 10.0 mi North 3.5 mph - N/A   Clear
4:53 AM 30.0 °F - 27.0 °F 88% 30.41 in 10.0 mi Calm Calm - N/A   Clear
5:53 AM 28.9 °F - 26.1 °F 89% 30.41 in 10.0 mi Calm Calm - N/A   Clear
6:53 AM 28.0 °F - 25.0 °F 88% 30.41 in 10.0 mi Calm Calm - N/A   Clear
7:53 AM 30.0 °F - 27.0 °F 88% 30.41 in 10.0 mi Calm Calm - N/A   Clear
8:53 AM 33.1 °F - 28.9 °F 85% 30.40 in 10.0 mi Calm Calm - N/A   Clear
9:53 AM 37.9 °F 34.4 °F 28.9 °F 70% 30.40 in 10.0 mi NNE 4.6 mph - N/A   Clear
10:53 AM 41.0 °F - 30.9 °F 67% 30.36 in 10.0 mi Calm Calm - N/A   Clear
11:53 AM 45.0 °F 42.6 °F 28.0 °F 52% 30.33 in 10.0 mi North 4.6 mph - N/A   Clear
12:53 PM 48.0 °F - 28.9 °F 48% 30.30 in 10.0 mi NNW 5.8 mph - N/A   Clear
1:53 PM 50.0 °F - 28.9 °F 44% 30.27 in 10.0 mi Calm Calm - N/A   Clear
2:53 PM 50.0 °F - 28.0 °F 43% 30.27 in 10.0 mi West 5.8 mph - N/A   Clear
3:53 PM 52.0 °F - 26.1 °F 37% 30.27 in 10.0 mi West 5.8 mph - N/A   Clear
4:53 PM 52.0 °F - 28.9 °F 41% 30.26 in 10.0 mi Calm Calm - N/A   Clear
5:53 PM 48.9 °F - 30.0 °F 48% 30.27 in 10.0 mi WNW 3.5 mph - N/A   Clear
6:53 PM 46.0 °F 44.8 °F 32.0 °F 58% 30.28 in 10.0 mi SSW 3.5 mph - N/A   Clear
7:53 PM 45.0 °F - 32.0 °F 60% 30.28 in 10.0 mi Calm Calm - N/A   Clear
8:53 PM 39.0 °F 36.8 °F 30.9 °F 73% 30.30 in 10.0 mi North 3.5 mph - N/A   Partly Cloudy
9:53 PM 37.0 °F - 30.9 °F 79% 30.31 in 10.0 mi Calm Calm - N/A   Scattered Clouds
10:53 PM 37.0 °F - 30.9 °F 79% 30.31 in 10.0 mi Calm Calm - N/A   Partly Cloudy
11:53 PM 36.0 °F - 30.0 °F 79% 30.32 in 10.0 mi Calm Calm - N/A   Clear